STARLINK-5909 (55938 NORAD) Tracking and Keplerian Element Data

This shows tracking and keplerian element data for the satellite.

Feedback or suggestion? Click here.




ElementValue
Catalog55938
NameSTARLINK-5909
Epoch Orbit794
Epoch Day126.16738827
Epoch Year2023
RAAN42.1843
Inclination70.0011
Eccentricity0.0003017
Argument of Perigee253.1597
Mean Anonmoly106.9268
Mean Motion15.69934334
Decay Rate5.09E-06
L11 55938U 23037AA 23126.16738827 .00000509 00000+0 59996-5 0 9997
L22 55938 70.0011 42.1843 0003017 253.1597 106.9268 15.69934334 7945



Live tracking and technical data element details for STARLINK-5909 (NORAD 55938). STARLINK-5909 can be tracked NOW for your location showing map with azimuth and elevation plus other details from your city location.







IsCatalogInMostPopularTable: catalog: 55938, numindb: 9
Update: records affected: 1



GetName: 55938 STARLINK-5909

Hit Count: updated at: Tue, 06 Jun 2023 03:35:29 GMT